Meteo Giornale » Osservazioni meteo Italia » Ronchi Dei Legionari

ore: 00:50 - Osservazioni Meteo Ronchi Dei Legionari
Lat. 45° 49' N Lon. 13° 29' E Alt. 12 metri s.l.m.

coperto_pioggia Europe/Rome

14 °C

Pioggia Debole

Temp. 24 Ore

14 °C

17 °C

Sud-Est

11.1 Km/h

Dew point 13 °C

Umidità 93 %

Visibilità  10 Km

Il sole sorge alle ore 05:56

Il sole tramonta alle ore 20:10

Data e Ora Cielo e Fenomeni T °C DP °C Um. % Pres. hPa Vis. km Vento km/h
Oggi h: 00:50 coperto_pioggia Pioggia Debole 14 13 93 1008 10 SE 11.1
Oggi h: 00:20 coperto Coperto 14 13 93 1009 10 E/SE 9.3
Ieri h: 23:50 coperto_pioggia Pioggia Foschia 14 13 93 1009 2 SE 11.1
Ieri h: 23:20 coperto_pioggia Pioggia Foschia 14 13 93 1010 2 N 5.5
Ieri h: 22:50 coperto_pioggia Pioggia Foschia 14 13 93 1010 3 N 3.7
Ieri h: 22:20 coperto_pioggia Pioggia Foschia 14 13 93 1010 4 N 5.5
Ieri h: 21:50 coperto_pioggia Pioggia Debole 15 13 87 1009 6 S 14.8
Ieri h: 21:20 coperto_pioggia Pioggia Debole 15 13 87 1009 6 S/SE 18.5
Ieri h: 20:50 coperto_pioggia Pioggia Debole 15 12 82 1009 7 S/SE 13
Ieri h: 20:20 molto_nuvoloso Molto Nuvoloso 15 12 82 1008 10 SE 13
Ieri h: 19:50 molto_nuvoloso Molto Nuvoloso 15 12 82 1008 10 S/SE 11.1
Ieri h: 19:20 molto_nuvoloso Molto Nuvoloso 15 12 82 1009 10 SE 13
Ieri h: 18:50 molto_nuvoloso Molto Nuvoloso 14 12 87 1009 10 E/SE 14.8
Ieri h: 18:20 molto_nuvoloso Molto Nuvoloso 14 12 87 1009 7 E 11.1
Ieri h: 17:50 coperto_pioggia Pioggia Debole 14 13 93 1009 7 E 13
Ieri h: 17:20 coperto_pioggia Pioggia Debole 14 13 93 1010 6 E/SE 13
Ieri h: 16:50 coperto_pioggia Pioggia Debole Foschia 14 13 93 1010 5 SE 11.1
Ieri h: 16:20 coperto_pioggia Pioggia Foschia 14 13 93 1010 5 S/SE 7.4
Ieri h: 15:50 coperto_pioggia Pioggia Foschia 15 12 82 1010 5 N 5.5
Ieri h: 15:20 coperto_pioggia Pioggia Debole 15 13 87 1010 6 S/SE 9.3
Ieri h: 14:50 coperto_pioggia Pioggia Debole 15 13 87 1010 10 S/SE 13
Ieri h: 14:20 coperto_pioggia Pioggia Debole 15 12 82 1010 10 S/SE 13
Ieri h: 13:50 coperto_pioggia Pioggia Debole 16 12 77 1010 9 S 11.1
Ieri h: 13:20 coperto_pioggia Pioggia Debole 16 12 77 1010 10 S 14.8
Ieri h: 12:50 coperto_pioggia Pioggia Debole 16 13 82 1010 9 S 11.1
Ieri h: 12:20 coperto_pioggia Pioggia Debole 15 13 87 1010 10 S/SO 11.1
Ieri h: 11:50 coperto_pioggia Pioggia Debole 15 13 87 1010 9 S 11.1
Ieri h: 11:20 coperto_pioggia Pioggia Debole 15 12 82 1010 10 S 18.5
Ieri h: 10:50 coperto_pioggia Pioggia Debole 16 10 67 1010 10 S 18.5
Ieri h: 10:20 molto_nuvoloso Molto Nuvoloso 17 11 67 1010 10 S 22.2
Ieri h: 09:50 molto_nuvoloso Molto Nuvoloso 16 11 72 1010 10 S 16.7
Ieri h: 09:20 molto_nuvoloso Molto Nuvoloso 16 11 72 1010 10 S 18.5
Ieri h: 08:50 nuvoloso Nuvoloso 16 12 77 1010 10 S 20.3
Ieri h: 08:20 nuvoloso Nuvoloso 16 12 77 1010 10 S/SE 20.3
Ieri h: 07:50 nuvoloso Nuvoloso 15 12 82 1010 10 S/SE 14.8
Ieri h: 07:20 poco_nuvoloso Poco Nuvoloso 15 12 82 1010 10 S/SE 13
Ieri h: 06:50 nuvoloso Nuvoloso 15 12 82 1010 10 S/SE 16.7
Ieri h: 06:20 nuvoloso Nuvoloso 15 12 82 1010 10 S 14.8
Ieri h: 05:50 molto_nuvoloso Molto Nuvoloso 14 12 87 1010 10 S/SE 13
Ieri h: 05:20 molto_nuvoloso Molto Nuvoloso 15 12 82 1010 10 S/SE 14.8
Ieri h: 04:50 molto_nuvoloso Molto Nuvoloso 15 12 82 1010 10 S/SE 16.7
Ieri h: 04:20 coperto_pioggia Pioggia Debole 15 12 82 1011 10 S 13
Ieri h: 03:50 molto_nuvoloso Molto Nuvoloso 15 12 82 1011 10 S 14.8
Ieri h: 03:20 coperto Coperto 15 12 82 1011 10 S/SE 13
Ieri h: 02:50 molto_nuvoloso Molto Nuvoloso 15 11 76 1011 10 S/SE 16.7
Ieri h: 02:20 coperto Coperto 15 11 76 1011 10 S 13
Ieri h: 01:50 coperto Coperto 15 11 76 1011 10 SE 13